M I D A S
Marine Information and Data Acquisition System
Tripno 1592 of the Zeeleeuw from 2008-10-21 08:12:37 to 2008-10-21 09:31:44
Back to CruiseResearch ActivitiesStationsMapUnderway DataData graphs

EquipmentUnitsComments
TimeDGPSUTC
LatitudeDGPSDM.mWGS84
LongitudeDGPSDM.mWGS84
SpeedMeteo Stationm/sRelative wind speed
DirectionMeteo StationdegRelative wind direction
TemperatureMeteo Stationdeg CelciusAir temperature
PressureMeteo StationPaAtmospheric pressure
HumidityMeteo Station%Relative humidity
Missing or incorrect values are displayed as -999
Metereological data collected by the RV Zeeleeuw from 2008-10-21 08:12:37 to 2008-10-21 09:31:44
Time Latitude Longitude Speed Direction Temperature Pressure Humidity
2008-10-21 08:14 51°13.623 2°56.048 -999 -999 -999 -999 -999
2008-10-21 08:16 51°13.657 2°55.931 -999 -999 -999 -999 -999
2008-10-21 08:18 51°13.698 2°55.753 -999 -999 -999 -999 -999
2008-10-21 08:20 51°13.716 2°55.721 -999 -999 -999 -999 -999
2008-10-21 08:22 51°13.898 2°55.583 -999 -999 -999 -999 -999
2008-10-21 08:24 51°14.146 2°55.391 -999 -999 -999 -999 -999
2008-10-21 08:26 51°14.35 2°55.099 -999 -999 -999 -999 -999
2008-10-21 08:28 51°14.406 2°54.719 -999 -999 -999 -999 -999
2008-10-21 08:30 51°14.311 2°54.339 -999 -999 -999 -999 -999
2008-10-21 08:32 51°14.21 2°53.964 -999 -999 -999 -999 -999
2008-10-21 08:34 51°14.085 2°53.613 -999 -999 -999 -999 -999
2008-10-21 08:36 51°13.961 2°53.258 -999 -999 -999 -999 -999
2008-10-21 08:38 51°13.834 2°52.904 -999 -999 -999 -999 -999
2008-10-21 08:40 51°13.71 2°52.556 -999 -999 -999 -999 -999
2008-10-21 08:42 51°13.595 2°52.191 -999 -999 -999 -999 -999
2008-10-21 08:44 51°13.471 2°51.892 -999 -999 -999 -999 -999
2008-10-21 08:46 51°13.5 2°52.138 -999 -999 -999 -999 -999
2008-10-21 08:48 51°13.651 2°52.499 -999 -999 -999 -999 -999
2008-10-21 08:50 51°13.805 2°52.84 -999 -999 -999 -999 -999
2008-10-21 08:52 51°13.962 2°53.18 -999 -999 -999 -999 -999
2008-10-21 08:54 51°14.117 2°53.52 -999 -999 -999 -999 -999
2008-10-21 08:56 51°14.283 2°53.84 -999 -999 -999 -999 -999
2008-10-21 08:58 51°14.493 2°54.091 -999 -999 -999 -999 -999
2008-10-21 09:00 51°14.708 2°54.345 -999 -999 -999 -999 -999
2008-10-21 09:02 51°14.941 2°54.543 -999 -999 -999 -999 -999
2008-10-21 09:04 51°15.187 2°54.723 -999 -999 -999 -999 -999
2008-10-21 09:06 51°15.432 2°54.914 -999 -999 -999 -999 -999
2008-10-21 09:08 51°15.675 2°55.108 -999 -999 -999 -999 -999
2008-10-21 09:10 51°15.912 2°55.296 -999 -999 -999 -999 -999
2008-10-21 09:12 51°16.146 2°55.478 -999 -999 -999 -999 -999
2008-10-21 09:14 51°16.362 2°55.686 -999 -999 -999 -999 -999
2008-10-21 09:16 51°16.362 2°55.539 -999 -999 -999 -999 -999
2008-10-21 09:18 51°16.106 2°55.251 -999 -999 -999 -999 -999
2008-10-21 09:20 51°15.915 2°54.973 -999 -999 -999 -999 -999
2008-10-21 09:22 51°15.709 2°54.734 -999 -999 -999 -999 -999
2008-10-21 09:24 51°15.473 2°54.567 -999 -999 -999 -999 -999
2008-10-21 09:26 51°15.269 2°54.673 -999 -999 -999 -999 -999
2008-10-21 09:28 51°14.896 2°54.697 -999 -999 -999 -999 -999
2008-10-21 09:30 51°14.523 2°54.881 -999 -999 -999 -999 -999